Location: Strada George Coșbuc
(47.6577°N, 23.5639°E)
Time: 21:33:34
(UTC+03:00)

ISS - Pass Details

Date: 03 October 2017
Orbit: 401 x 408 km, 51.6° (Epoch: 19 October)

Event Time Altitude Azimuth Distance (km) Brightness Sun altitude
Rises 21:46:38 0° 288° (WNW) 2,329 1.3 -27.9°
Reaches altitude 10° 21:48:47 10° 295° (WNW) 1,470 0.0 -28.3°
Enters shadow 21:49:48 18° 303° (WNW) 1,083 -0.9 -28.4°
